[[{"header":{"parameterUnit":"m.s-1","parameterCategory":1,"la1":30.2991,"la2":30.254,"lo1":-89.0895,"lo2":-89.0444,"dy":0.0017,"dx":0.0017,"nx":28,"ny":28,"refTime":"2024-02-10T09:00:00:Z","depth":0,"parameterNumber":2,"parameterNumberName":"U-component_of_WINDS"},"data":[0,0,0,0,0,0,0,0,0,0,0,0,0,0,0,0,0,0,0,0,0,0,0,0,0,0,0,0,0,0,0,0,0,0,0,0,0,0,0,0,0,0,0,0,0,0,0,0,0,0,0,0,0,0,0,0,0,0,-1.1868,-1.1868,0,-1.1846,-1.1846,-1.1846,-1.1846,-1.1846,-1.1847,-1.1847,-1.1823,-1.1822,-1.1821,0,0,0,0,0,0,0,0,0,0,0,0,0,-1.1909,-1.1908,-1.1868,-1.1868,-1.1868,-1.1846,-1.1846,-1.1846,-1.1846,-1.1846,-1.1847,-1.1847,-1.1824,-1.1822,-1.1821,0,0,0,0,0,0,0,0,0,0,0,0,0,-1.189,-1.1908,-1.1868,-1.1865,-1.1865,-1.1846,-1.1846,-1.1846,-1.1846,-1.1846,-1.1847,-1.1847,-1.1824,-1.1823,-1.1821,-1.1804,0,0,-1.1817,-1.1816,0,0,0,0,0,0,0,0,-1.1891,-1.1888,-1.1866,-1.1866,-1.1865,-1.1849,-1.1852,-1.1831,-1.1846,-1.1853,-1.1847,-1.1847,-1.1831,-1.183,-1.1824,-1.1803,-1.1802,-1.1817,-1.1816,-1.1816,-1.1815,0,0,0,0,0,0,0,-1.1892,-1.1889,-1.186,-1.1866,-1.1865,-1.1865,-1.1862,-1.1848,-1.184,-1.1852,-1.1852,-1.185,-1.1831,-1.1826,-1.1824,-1.1801,-1.1817,-1.1816,-1.1815,-1.1814,-1.1763,-1.1762,0,0,0,0,0,0,-1.1894,-1.189,-1.186,-1.1859,-1.1879,-1.1863,-1.1861,-1.1854,-1.184,-1.1839,-1.185,-1.185,-1.1828,-1.1825,-1.1823,-1.18,-1.1816,-1.1814,-1.1813,-1.1763,-1.1762,-1.1762,0,0,0,0,0,0,-1.1895,-1.1892,-1.1861,-1.1874,-1.1871,-1.1862,-1.1854,-1.1853,-1.1848,-1.1838,-1.1836,-1.1845,-1.1828,-1.1825,-1.1808,-1.18,-1.1814,-1.1812,-1.1764,-1.1763,-1.1762,-1.1756,0,0,0,0,0,0,-1.1896,-1.1892,-1.1886,-1.1874,-1.187,-1.1847,-1.1854,-1.1852,-1.1845,-1.1846,-1.1834,-1.1832,-1.1828,-1.181,-1.1807,-1.1798,-1.1811,-1.1764,-1.1763,-1.1762,-1.1757,-1.1755,-1.1753,0,0,0,0,0,-1.1898,-1.1885,-1.1885,-1.1882,-1.1862,-1.1847,-1.1844,-1.184,-1.1845,-1.1838,-1.1831,-1.1832,-1.1801,-1.1809,-1.1805,-1.1795,-1.1765,-1.1764,-1.1762,-1.1757,-1.1755,-1.1753,0,0,0,0,0,0,-1.1895,-1.1883,-1.1884,-1.1867,-1.1858,-1.1847,-1.1838,-1.1838,-1.1827,-1.1828,-1.1824,-1.1821,-1.1804,-1.1798,-1.1806,-1.1777,-1.1784,-1.1782,-1.1781,-1.1779,-1.1777,-1.1778,-1.181,0,0,0,0,0,-1.1893,-1.1882,-1.1872,-1.1858,-1.1854,-1.1847,-1.184,-1.1838,-1.1828,-1.1824,-1.1816,-1.1807,-1.1794,-1.1787,-1.1775,-1.1756,-1.1753,-1.1748,-1.1746,-1.1745,-1.1742,-1.173,-1.1728,-1.1758,-1.1758,-1.1758,0,0,-1.1888,-1.188,-1.1873,-1.1857,-1.185,-1.1838,-1.1843,-1.1831,-1.1822,-1.1822,-1.1805,-1.18,-1.1788,-1.177,-1.1762,-1.1765,-1.1733,-1.1743,-1.1742,-1.174,-1.1729,-1.1726,-1.1723,-1.1757,-1.1757,-1.1757,0,0,-1.1872,-1.1865,-1.1852,-1.1845,-1.1833,-1.1829,-1.1826,-1.1814,-1.181,-1.1794,-1.1793,-1.1782,-1.1762,-1.1753,-1.1746,-1.1726,-1.1726,-1.1722,-1.1713,-1.1701,-1.1699,-1.1697,-1.1688,-1.1685,-1.1721,-1.1721,-1.1721,0,-1.1866,-1.1849,-1.1845,-1.1832,-1.1825,-1.1825,-1.1811,-1.1804,-1.1789,-1.1784,-1.1787,-1.1761,-1.1753,-1.1732,-1.1727,-1.1722,-1.1717,-1.1723,-1.17,-1.1697,-1.1695,-1.1687,-1.1684,-1.172,-1.172,-1.172,-1.172,0,-1.1842,-1.183,-1.182,-1.1806,-1.1798,-1.1785,-1.1778,-1.177,-1.1768,-1.1763,-1.1745,-1.1736,-1.1722,-1.1717,-1.1716,-1.1696,-1.1698,-1.1701,-1.1707,-1.1692,-1.1684,-1.1681,-1.1719,-1.172,-1.172,-1.172,0,0,-1.1824,-1.1807,-1.1804,-1.1797,-1.1784,-1.1774,-1.176,-1.1747,-1.1739,-1.1729,-1.1716,-1.1699,-1.1701,-1.1693,-1.169,-1.168,-1.1663,-1.1684,-1.1684,-1.1679,-1.1638,-1.1635,-1.1631,-1.1663,-1.1662,-1.1662,-1.1638,0,-1.1805,-1.1781,-1.1777,-1.1755,-1.1743,-1.1743,-1.173,-1.1721,-1.1715,-1.1703,-1.1697,-1.1684,-1.1689,-1.1684,-1.1674,-1.1667,-1.1654,-1.1669,-1.165,-1.1649,-1.1651,-1.1627,-1.1624,-1.1603,-1.1635,-1.1635,-1.1635,0,-1.1781,-1.1769,-1.1746,-1.1734,-1.1729,-1.1718,-1.1704,-1.1693,-1.1682,-1.1679,-1.1669,-1.1668,-1.1652,-1.166,-1.1638,-1.1648,-1.164,-1.1635,-1.1634,-1.1631,-1.164,-1.1622,-1.1596,-1.1592,-1.163,-1.163,-1.1631,0,-1.1768,-1.1747,-1.173,-1.1724,-1.171,-1.1702,-1.1695,-1.1685,-1.1676,-1.1664,-1.1658,-1.1645,-1.1637,-1.1626,-1.162,-1.1627,-1.1598,-1.1606,-1.1594,-1.1594,-1.1587,-1.1587,-1.1557,-1.1584,-1.1584,-1.1584,-1.1584,0,-1.1747,-1.1733,-1.1724,-1.1714,-1.1697,-1.1692,-1.1676,-1.1669,-1.166,-1.1647,-1.1646,-1.1634,-1.1628,-1.1615,-1.1611,-1.1592,-1.1589,-1.1585,-1.1584,-1.1584,-1.1584,-1.1578,-1.1579,-1.1583,-1.1584,-1.1584,-1.1584,0,-1.173,-1.1724,-1.1705,-1.1692,-1.1689,-1.1677,-1.1666,-1.1655,-1.165,-1.1634,-1.163,-1.1621,-1.1605,-1.1599,-1.158,-1.1577,-1.1555,-1.1556,-1.1559,-1.1558,-1.1546,-1.1546,-1.1509,-1.1503,-1.1536,-1.1536,-1.1535,0,-1.1716,-1.1705,-1.1691,-1.1682,-1.1676,-1.1662,-1.1653,-1.1648,-1.1639,-1.1624,-1.1615,-1.16,-1.1587,-1.1562,-1.1553,-1.1539,-1.1538,-1.1526,-1.1536,-1.1536,-1.1536,-1.1536,-1.1534,-1.1524,-1.1523,-1.1523,-1.1523,0,-1.1692,-1.1689,-1.1677,-1.1663,-1.1652,-1.1641,-1.163,-1.1623,-1.1616,-1.1605,-1.1589,-1.1579,-1.1559,-1.1543,-1.1528,-1.1521,-1.152,-1.152,-1.1516,-1.1516,-1.1517,-1.1515,-1.1552,-1.1521,-1.1521,-1.1521,-1.1521,-1.1521,-1.1675,-1.1664,-1.1652,-1.1638,-1.1629,-1.1618,-1.1607,-1.16,-1.1587,-1.157,-1.1568,-1.155,-1.1538,-1.1517,-1.1509,-1.1495,-1.1498,-1.1492,-1.1491,-1.1489,-1.1487,-1.1521,-1.1492,-1.1492,-1.1492,-1.1492,-1.1492,0,-1.165,-1.1642,-1.1629,-1.1613,-1.1601,-1.1602,-1.1589,-1.1579,-1.1564,-1.1553,-1.154,-1.1521,-1.1505,-1.1495,-1.1479,-1.1469,-1.1468,-1.1465,-1.1465,-1.1463,-1.1487,-1.1491,-1.1466,-1.1466,-1.1466,-1.1466,-1.1466,-1.1466,-1.1635,-1.1616,-1.1612,-1.1588,-1.1581,-1.1563,-1.1556,-1.1545,-1.1536,-1.1515,-1.1502,-1.1495,-1.1484,-1.1467,-1.1452,-1.145,-1.1443,-1.1439,-1.1436,-1.1459,-1.1461,-1.1464,-1.1468,-1.1438,-1.1438,-1.1413,-1.1413,-1.1413]},{"header":{"parameterUnit":"m.s-1","parameterCategory":1,"la1":30.2991,"la2":30.254,"lo1":-89.0895,"lo2":-89.0444,"dy":0.0017,"dx":0.0017,"nx":28,"ny":28,"refTime":"2024-02-10T09:00:00:Z","depth":0,"parameterNumber":3,"parameterNumberName":"V-component_of_WINDS"},"data":[0,0,0,0,0,0,0,0,0,0,0,0,0,0,0,0,0,0,0,0,0,0,0,0,0,0,0,0,0,0,0,0,0,0,0,0,0,0,0,0,0,0,0,0,0,0,0,0,0,0,0,0,0,0,0,0,0,0,5.0626,5.0628,0,5.083,5.0832,5.0834,5.0842,5.084,5.0838,5.0835,5.1039,5.1046,5.1054,0,0,0,0,0,0,0,0,0,0,0,0,0,5.0241,5.0248,5.0626,5.0628,5.0631,5.0829,5.0832,5.0835,5.0843,5.084,5.0837,5.0834,5.1036,5.1045,5.1055,0,0,0,0,0,0,0,0,0,0,0,0,0,5.0422,5.025,5.0625,5.0659,5.0664,5.0829,5.0832,5.0836,5.0843,5.084,5.0836,5.0833,5.1033,5.1044,5.1056,5.1199,0,0,5.1091,5.1096,0,0,0,0,0,0,0,0,5.0412,5.0437,5.0652,5.0657,5.0663,5.0807,5.0771,5.0957,5.0844,5.0775,5.0835,5.0831,5.0964,5.0981,5.1027,5.1209,5.1217,5.1092,5.1099,5.1104,5.1107,0,0,0,0,0,0,0,5.04,5.0428,5.0706,5.0655,5.0662,5.0663,5.0685,5.0806,5.0887,5.0781,5.0782,5.0806,5.0967,5.1016,5.1032,5.122,5.1092,5.1102,5.1109,5.1113,5.1533,5.1537,0,0,0,0,0,0,5.0381,5.0417,5.07,5.0712,5.0526,5.0673,5.0697,5.0764,5.0886,5.0901,5.0809,5.0806,5.0998,5.1019,5.1039,5.1218,5.1104,5.1115,5.1121,5.1528,5.1533,5.1538,0,0,0,0,0,0,5.0373,5.0406,5.0692,5.0565,5.0602,5.0683,5.0759,5.077,5.082,5.0908,5.0922,5.0845,5.0996,5.1023,5.116,5.1225,5.112,5.113,5.1523,5.153,5.1536,5.1575,0,0,0,0,0,0,5.0362,5.0403,5.0459,5.0567,5.0609,5.0811,5.0763,5.0777,5.084,5.0838,5.0945,5.0959,5.0995,5.1143,5.1172,5.1239,5.1139,5.1518,5.1526,5.1534,5.1568,5.1582,5.1594,0,0,0,0,0,5.0348,5.046,5.0462,5.0496,5.0681,5.0814,5.0838,5.0879,5.0845,5.0902,5.0959,5.0956,5.1213,5.1157,5.1189,5.1261,5.1514,5.1524,5.1533,5.1563,5.1579,5.1593,0,0,0,0,0,0,5.0356,5.0475,5.0478,5.0629,5.0712,5.0816,5.0889,5.0895,5.0988,5.0982,5.1026,5.1051,5.1188,5.1237,5.1173,5.1408,5.1359,5.1376,5.1371,5.1387,5.14,5.1386,5.1149,0,0,0,0,0,5.0375,5.0475,5.0573,5.0697,5.0738,5.0806,5.0866,5.0891,5.0978,5.1012,5.1079,5.1162,5.1262,5.1327,5.1423,5.1574,5.1599,5.164,5.1652,5.1662,5.1677,5.1763,5.1783,5.1569,5.1569,5.1569,0,0,5.0416,5.0494,5.0554,5.07,5.0768,5.087,5.0836,5.0944,5.1021,5.1028,5.1164,5.1215,5.1311,5.1457,5.1525,5.1503,5.1741,5.1674,5.1682,5.1691,5.1775,5.1795,5.1813,5.1576,5.1575,5.1574,0,0,5.0544,5.0612,5.0724,5.0793,5.0896,5.0941,5.0968,5.1071,5.1107,5.1244,5.1252,5.1342,5.1513,5.1582,5.1639,5.1795,5.1797,5.1825,5.1892,5.1976,5.1993,5.2008,5.2067,5.2087,5.1838,5.1839,5.1839,0,5.0582,5.0738,5.078,5.0891,5.0956,5.0969,5.1084,5.1147,5.1276,5.132,5.1294,5.151,5.1575,5.1739,5.1778,5.1822,5.1855,5.1814,5.1987,5.2003,5.2018,5.2074,5.2096,5.1842,5.1841,5.1841,5.1841,0,5.0781,5.0889,5.0967,5.1094,5.1167,5.1279,5.1338,5.1407,5.1425,5.1472,5.1612,5.1691,5.1805,5.1845,5.1862,5.2012,5.1996,5.1978,5.1931,5.2041,5.2095,5.2116,5.1846,5.1845,5.1844,5.1843,0,0,5.092,5.1071,5.1099,5.1159,5.1274,5.1358,5.147,5.1584,5.1644,5.1731,5.1828,5.1972,5.1958,5.2022,5.2047,5.2121,5.2244,5.2094,5.2097,5.2122,5.2417,5.2432,5.2457,5.2244,5.2248,5.2251,5.241,0,5.1063,5.1266,5.1309,5.1484,5.1585,5.16,5.1698,5.1779,5.1826,5.1918,5.1969,5.2073,5.2043,5.2083,5.2156,5.2213,5.2304,5.2202,5.2335,5.2339,5.2314,5.2484,5.2501,5.2647,5.2431,5.2434,5.2437,0,5.1258,5.1354,5.1541,5.1646,5.169,5.1778,5.1887,5.1975,5.2067,5.2096,5.217,5.2188,5.2305,5.225,5.2413,5.2343,5.2399,5.2435,5.2442,5.2459,5.2397,5.2508,5.2694,5.2717,5.247,5.2467,5.2465,0,5.1345,5.1521,5.1656,5.1706,5.1831,5.1893,5.1947,5.2036,5.2103,5.2197,5.2241,5.2346,5.2405,5.2486,5.2532,5.2487,5.2692,5.264,5.2721,5.272,5.2765,5.2763,5.2966,5.2796,5.2796,5.2795,5.2795,0,5.1503,5.1617,5.1698,5.1781,5.191,5.1957,5.2082,5.2136,5.2215,5.2309,5.2325,5.2413,5.2467,5.2562,5.2597,5.2728,5.2753,5.2781,5.279,5.2782,5.2779,5.2821,5.2814,5.2801,5.28,5.2799,5.2798,0,5.1623,5.1682,5.1831,5.1938,5.1967,5.2058,5.2149,5.223,5.2277,5.2396,5.2427,5.2501,5.2614,5.2667,5.2805,5.2829,5.2979,5.2979,5.295,5.2954,5.3032,5.3025,5.3272,5.3309,5.3112,5.3113,5.3115,0,5.1721,5.181,5.1928,5.1994,5.2051,5.2155,5.2224,5.2273,5.2344,5.2457,5.2525,5.2639,5.2734,5.2913,5.2979,5.3085,5.309,5.3169,5.3106,5.3096,5.3095,5.3091,5.3102,5.3181,5.3183,5.3185,5.3186,0,5.1891,5.1916,5.2017,5.2128,5.2211,5.23,5.2388,5.244,5.2503,5.2581,5.2699,5.2772,5.2916,5.3029,5.3141,5.3195,5.3203,5.3205,5.323,5.3225,5.3205,5.3221,5.2984,5.32,5.3199,5.3198,5.3197,5.3196,5.2006,5.2087,5.2184,5.2296,5.2367,5.245,5.2533,5.2592,5.2691,5.2814,5.2836,5.2961,5.3052,5.3203,5.3262,5.336,5.3341,5.3376,5.3386,5.3395,5.3401,5.3187,5.3379,5.3379,5.3379,5.3378,5.3378,0,5.218,5.2243,5.2345,5.247,5.2558,5.2558,5.2655,5.2729,5.284,5.2925,5.3019,5.3155,5.3265,5.334,5.3452,5.3516,5.3522,5.3544,5.3542,5.3555,5.3409,5.3379,5.3538,5.3538,5.3538,5.3538,5.3538,5.3538,5.2281,5.2419,5.2456,5.2631,5.2693,5.2818,5.2874,5.295,5.3019,5.3171,5.3265,5.3313,5.3395,5.3514,5.3615,5.3634,5.3676,5.3699,5.3718,5.3581,5.3565,5.3549,5.352,5.3707,5.3707,5.3856,5.3858,5.3859]}]]